EN

Hourly Weather Oymur

Today, 5 March, Friday

Time Temperature Precipitation Wind Pressure Humidity
00:00 -22°C° 0 mm 1 mps 732 mmHg 77%
01:00 -25°C° 0 mm 2 mps 733 mmHg 77%
02:00 -25°C° 0 mm 2 mps 732 mmHg 77%
03:00 -25°C° 0 mm 2 mps 732 mmHg 77%
04:00 -25°C° 0 mm 2 mps 732 mmHg 77%
05:00 -25°C° 0 mm 2 mps 732 mmHg 78%
06:00 -26°C° 0 mm 3 mps 732 mmHg 80%
07:00 -26°C° 0 mm 3 mps 732 mmHg 83%
08:00 -23°C° 0 mm 3 mps 732 mmHg 82%
09:00 -21°C° 0 mm 3 mps 732 mmHg 81%
10:00 -19°C° 0 mm 4 mps 731 mmHg 80%
11:00 -18°C° 0 mm 4 mps 730 mmHg 82%
12:00 -17°C° 0 mm 4 mps 730 mmHg 84%
13:00 -15°C° 0 mm 4 mps 729 mmHg 84%
14:00 -15°C° 0 mm 4 mps 729 mmHg 85%
15:00 -15°C° 0 mm 4 mps 728 mmHg 86%
16:00 -17°C° 0 mm 5 mps 727 mmHg 87%
17:00 -17°C° 0 mm 4 mps 727 mmHg 88%
18:00 -18°C° 0 mm 4 mps 727 mmHg 89%
19:00 -19°C° 0 mm 4 mps 727 mmHg 90%
20:00 -19°C° 0 mm 4 mps 727 mmHg 91%
21:00 -19°C° 0 mm 4 mps 726 mmHg 91%
22:00 -19°C° 0 mm 4 mps 726 mmHg 92%
23:00 -19°C° 0 mm 4 mps 726 mmHg 92%

Tomorrow, 6 March, Saturday

Time Temperature Precipitation Wind Pressure Humidity
00:00 -20°C° 0 mm 4 mps 725 mmHg 93%
01:00 -20°C° 0 mm 4 mps 725 mmHg 93%
02:00 -19°C° 0 mm 3 mps 725 mmHg 94%
03:00 -18°C° 0 mm 3 mps 725 mmHg 94%
04:00 -17°C° 0 mm 2 mps 725 mmHg 95%
05:00 -17°C° 0 mm 2 mps 725 mmHg 95%
06:00 -15°C° 0 mm 1 mps 726 mmHg 95%
07:00 -15°C° 0 mm 1 mps 726 mmHg 96%
08:00 -13°C° 0 mm 1 mps 726 mmHg 92%
09:00 -12°C° 0 mm 1 mps 727 mmHg 89%
10:00 -13°C° 0 mm 2 mps 727 mmHg 86%
11:00 -10°C° 0 mm 2 mps 726 mmHg 84%
12:00 -9°C° 0 mm 2 mps 726 mmHg 82%
13:00 -7°C° 0 mm 2 mps 725 mmHg 80%
14:00 -6°C° 0 mm 2 mps 725 mmHg 81%
15:00 -4°C° 0 mm 1 mps 725 mmHg 81%
16:00 -3°C° 0 mm 1 mps 724 mmHg 82%
17:00 -4°C° 0 mm 1 mps 724 mmHg 83%
18:00 -7°C° 0 mm 1 mps 724 mmHg 83%
19:00 -8°C° 0 mm 1 mps 724 mmHg 84%
20:00 -9°C° 0 mm 1 mps 724 mmHg 85%
21:00 -9°C° 0 mm 1 mps 724 mmHg 86%
22:00 -10°C° 0 mm 1 mps 723 mmHg 87%
23:00 -10°C° 0 mm 1 mps 723 mmHg 87%

Day after tomorrow, 7 March, Sunday

Time Temperature Precipitation Wind Pressure Humidity
00:00 -10°C° 0 mm 1 mps 723 mmHg 87%
01:00 -10°C° 0 mm 1 mps 723 mmHg 87%
02:00 -10°C° 0 mm 1 mps 722 mmHg 87%
03:00 -11°C° 0 mm 1 mps 722 mmHg 87%
04:00 -11°C° 0 mm 1 mps 722 mmHg 87%
05:00 -11°C° 0 mm 1 mps 722 mmHg 87%
06:00 -13°C° 0 mm 2 mps 722 mmHg 87%
07:00 -13°C° 0 mm 2 mps 722 mmHg 88%
08:00 -9°C° 0 mm 1 mps 721 mmHg 86%
09:00 -7°C° 0 mm 1 mps 721 mmHg 85%
10:00 -4°C° 0 mm 1 mps 721 mmHg 84%
11:00 -3°C° 0 mm 1 mps 721 mmHg 83%
12:00 -2°C° 0 mm 1 mps 720 mmHg 82%
13:00 -1°C° 0 mm 1 mps 720 mmHg 81%
14:00 -1°C° 0 mm 1 mps 719 mmHg 83%
15:00 -1°C° 0 mm 1 mps 719 mmHg 84%
16:00 -1°C° 0 mm 1 mps 718 mmHg 86%
17:00 -3°C° 0 mm 1 mps 719 mmHg 86%
18:00 -4°C° 0 mm 1 mps 719 mmHg 85%
19:00 -7°C° 0 mm 1 mps 719 mmHg 85%
20:00 -7°C° 0 mm 1 mps 719 mmHg 84%
21:00 -7°C° 0 mm 1 mps 719 mmHg 83%
22:00 -7°C° 0 mm 1 mps 719 mmHg 82%
23:00 -8°C° 0 mm 2 mps 719 mmHg 82%

8 March, Monday

Time Temperature Precipitation Wind Pressure Humidity
00:00 -7°C° 0 mm 2 mps 719 mmHg 82%
01:00 -7°C° 0 mm 2 mps 720 mmHg 83%
02:00 -7°C° 0 mm 2 mps 720 mmHg 83%
03:00 -7°C° 0 mm 2 mps 720 mmHg 84%
04:00 -7°C° 0 mm 2 mps 720 mmHg 84%
05:00 -7°C° 0 mm 2 mps 720 mmHg 85%
06:00 -9°C° 0 mm 3 mps 721 mmHg 85%
07:00 -9°C° 0 mm 3 mps 721 mmHg 86%
08:00 -7°C° 0 mm 3 mps 722 mmHg 85%
09:00 -6°C° 0 mm 3 mps 722 mmHg 84%
10:00 -4°C° 0 mm 3 mps 723 mmHg 83%
11:00 -4°C° 0.2 mm 4 mps 723 mmHg 82%
12:00 -5°C° 0.2 mm 5 mps 724 mmHg 82%
13:00 -5°C° 0.2 mm 5 mps 724 mmHg 81%
14:00 -6°C° 0.1 mm 5 mps 725 mmHg 80%
15:00 -5°C° 0.1 mm 4 mps 725 mmHg 78%
16:00 -7°C° 0.1 mm 4 mps 725 mmHg 77%
17:00 -8°C° 0 mm 3 mps 726 mmHg 79%
18:00 -10°C° 0 mm 3 mps 727 mmHg 82%
19:00 -12°C° 0 mm 2 mps 727 mmHg 84%
20:00 -13°C° 0 mm 2 mps 727 mmHg 84%
21:00 -13°C° 0 mm 2 mps 728 mmHg 84%
22:00 -12°C° 0 mm 1 mps 728 mmHg 84%
23:00 -12°C° 0 mm 1 mps 727 mmHg 84%

9 March, Tuesday

Time Temperature Precipitation Wind Pressure Humidity
00:00 -12°C° 0 mm 1 mps 727 mmHg 83%
01:00 -14°C° 0 mm 2 mps 727 mmHg 83%
02:00 -14°C° 0 mm 2 mps 726 mmHg 82%
03:00 -15°C° 0 mm 3 mps 725 mmHg 82%
04:00 -15°C° 0 mm 3 mps 725 mmHg 81%
05:00 -15°C° 0 mm 3 mps 724 mmHg 82%
06:00 -15°C° 0 mm 3 mps 724 mmHg 82%
07:00 -15°C° 0 mm 4 mps 724 mmHg 83%
08:00 -14°C° 0 mm 4 mps 723 mmHg 82%
09:00 -11°C° 0 mm 4 mps 723 mmHg 81%
10:00 -9°C° 0 mm 4 mps 722 mmHg 81%
11:00 -8°C° 0 mm 4 mps 722 mmHg 82%
12:00 -7°C° 0 mm 4 mps 722 mmHg 82%
13:00 -6°C° 0 mm 3 mps 721 mmHg 83%
14:00 -6°C° 0 mm 3 mps 721 mmHg 85%
15:00 -6°C° 0 mm 3 mps 721 mmHg 87%
16:00 -7°C° 0 mm 3 mps 721 mmHg 89%
17:00 -7°C° 0 mm 2 mps 722 mmHg 90%
18:00 -7°C° 0 mm 1 mps 722 mmHg 91%
19:00 -8°C° 0 mm 0 mps 723 mmHg 92%
20:00 -8°C° 0 mm 1 mps 723 mmHg 92%
21:00 -8°C° 0 mm 1 mps 723 mmHg 93%
22:00 -9°C° 0 mm 2 mps 723 mmHg 93%
23:00 -10°C° 0 mm 2 mps 724 mmHg 92%

10 March, Wednesday

Time Temperature Precipitation Wind Pressure Humidity
00:00 -10°C° 0 mm 2 mps 724 mmHg 92%
01:00 -10°C° 0 mm 2 mps 724 mmHg 91%
02:00 -10°C° 0 mm 2 mps 725 mmHg 91%
03:00 -10°C° 0 mm 2 mps 725 mmHg 91%
04:00 -10°C° 0 mm 2 mps 726 mmHg 92%
05:00 -10°C° 0 mm 2 mps 726 mmHg 91%
06:00 -9°C° 0 mm 2 mps 727 mmHg 91%
07:00 -9°C° 0 mm 2 mps 727 mmHg 91%
08:00 -7°C° 0 mm 2 mps 727 mmHg 87%
09:00 -4°C° 0 mm 1 mps 727 mmHg 83%
10:00 -2°C° 0 mm 1 mps 727 mmHg 79%
11:00 -1°C° 0 mm 1 mps 726 mmHg 79%
12:00 0°C° 0 mm 1 mps 726 mmHg 78%
13:00 +1°C° 0 mm 1 mps 725 mmHg 77%
14:00 -1°C° 0 mm 2 mps 725 mmHg 78%
15:00 -1°C° 0 mm 3 mps 724 mmHg 79%
16:00 -1°C° 0 mm 3 mps 723 mmHg 80%
17:00 -4°C° 0 mm 3 mps 723 mmHg 82%
18:00 -5°C° 0 mm 3 mps 723 mmHg 83%
19:00 -7°C° 0 mm 3 mps 723 mmHg 85%
20:00 -8°C° 0 mm 3 mps 723 mmHg 86%
21:00 -7°C° 0 mm 2 mps 723 mmHg 87%
22:00 -8°C° 0 mm 2 mps 723 mmHg 88%
23:00 -8°C° 0 mm 2 mps 723 mmHg 88%
Show more

We Need Your Consent

Meteoprog and our Service Providers may store and access personal data such as cookies, device identifiers or other similar technologies on your device and process such data to personalise content and ads, as well as provide social media features and to analyse the traffic.

  • Store and/or access information on your device

    Cookies, device identifiers or other information can be stored or accessed on your device for the purposes indicated above.

  • Personalised ads and content, ad and content measurement, audience insights, and products development

    Ads and content can be personalised based on a profile. More data can be added to better personalise ads and content. Ad and content performance can be measured. Insights about the audience who saw the ads and content can be derived. Such data can be used to develop or improve user’s experience, systems and software.

By clicking ‘I Agree’ you will allow the use of indicated cookies, device identifiers, web beacons or other similar technologies. Your settings can be changed in the browser on your device.

For certain purposes, legitimate interests may be relied on, rather than consent. You can read more about this in our Privacy and Cookie Policy.